Regional Weather Roundup
Issued by NWS

Home | Current Version | Previous Version | Text Only | Print | Product List | Glossary Off
Versions: 1 2 3 4 5 6 7 8 9 10 11 12 13 14 15 16 17 18 19 20 21 22 23 24 25 26 27 28 29 30 31 32 33 34 35 36 37 38 39 40 41 42 43 44 45 46 47 48 49 50

000
ASUS43 KMKX 031721
RWRWI

WISCONSIN REGIONAL WEATHER ROUNDUP
NATIONAL WEATHER SERVICE MILWAUKEE/SULLIVAN WI
1200 PM CDT TUE MAY 03 2016

NOTE: "FAIR" INDICATES FEW OR NO CLOUDS BELOW 12,000 FEET WITH NO
SIGNIFICANT WEATHER AND/OR OBSTRUCTIONS TO VISIBILITY.

WIZ001-002-006>008-014>016-023>028-031800-
NORTHWEST WISCONSIN

CITY           SKY/WX    TMP DP  RH WIND       PRES   REMARKS
SUPERIOR ARPT  CLOUDY    64  37  36 W13G28    29.70F
ASHLAND        CLOUDY    58  41  53 SW12G32   29.72F
HAYWARD        CLOUDY    64  33  31 W12       29.76F
SIREN          PTSUNNY   65  32  29 W17G26    29.78F
CUMBERLAND     CLOUDY    63  36  36 W17G28    29.81F
RICE LAKE      CLOUDY    65  35  32 W17G24    29.82F
CHETEK         CLOUDY    66  40  38 W12G18    29.81F
LADYSMITH      CLOUDY    65  37  35 W17G23    29.80F
EAU CLAIRE     PTSUNNY   67  30  25 W21G30    29.82F
MENOMONIE      SUNNY     68  37  31 W12G21    29.83F
NEW RICHMOND   MOSUNNY   65  37  35 W16G23    29.83F
OSCEOLA        MOSUNNY   67  38  33 W18G26    29.85F
$$

WIZ003>005-009-010-017-018-031800-
NORTH CENTRAL WISCONSIN

CITY           SKY/WX    TMP DP  RH WIND       PRES   REMARKS
MANITOWISH WTR CLOUDY    59  37  42 W17G28    29.74F
ARBOR VITAE    CLOUDY    62  38  41 W7        29.75F
WOODRUFF       CLOUDY    62  38  41 W7        29.75F
RHINELANDER    CLOUDY    62  35  36 W20G26    29.76F
EAGLE RIVER    CLOUDY    59  32  35 NW17G29   29.75S
LAND O LAKES   CLOUDY    59  35  39 NW10G16   29.75S
PHILLIPS       CLOUDY    62  36  37 W8G20     29.77F
TOMAHAWK       CLOUDY    63  34  34 W16G25    29.77F
MEDFORD        CLOUDY    63  36  36 W15G25    29.79F
MERRILL        CLOUDY    64  34  32 W15G23    29.78F
$$

WIZ029-030-035-036-043>047-031800-
CENTRAL WISCONSIN

CITY           SKY/WX    TMP DP  RH WIND       PRES   REMARKS
WAUSAU         PTSUNNY   68  32  26 W24G30    29.78F
MOSINEE        SUNNY     64  34  32 MISG      29.82F
MARSHFIELD     SUNNY     68  32  26 W16G28    29.81F
STEVENS POINT  MOSUNNY   64  33  30 W12G18    29.82F
WAUPACA        PTSUNNY   68  31  24 W12G17    29.82F
WAUTOMA        PTSUNNY   67  33  28 W17G23    29.83
WISC RAPIDS    PTSUNNY   67  29  24 NW12      29.84F
CAMP DOUGLAS   MOSUNNY   66  37  34 SW15G23   29.84F
$$

WIZ011>013-019>022-031-037>040-048>050-031800-
NORTHEAST WISCONSIN

CITY           SKY/WX    TMP DP  RH WIND       PRES   REMARKS
ANTIGO         PTSUNNY   63  33  32 W20       29.78F
SHAWANO        PTSUNNY   69  31  24 W14G30    29.79F
OCONTO         PTSUNNY   68  33  27 W18G26    29.76F
STURGEON BAY   MOSUNNY   66  36  32 W20G25    29.78F
GREEN BAY      MOSUNNY   69  36  29 W16       29.80F
MANITOWOC      SUNNY     67  34  29 W16G28    29.82F
APPLETON       PTSUNNY   66  30  26 W17G23    29.81F
CLINTONVILLE   MOSUNNY   68  30  24 W15G23    29.79F
OSHKOSH        MOSUNNY   66  33  29 W12       29.82F
$$

WIZ032>034-041-042-053>061-031800-
SOUTHWEST WISCONSIN

CITY           SKY/WX    TMP DP  RH WIND       PRES   REMARKS
LA CROSSE      PTSUNNY   68  37  32 W12       29.86F
SPARTA         PTSUNNY   66  38  34 W13G21    29.86F
VIROQUA        PTSUNNY   64  36  34 W13G18    29.89F
BOSCOBEL       PTSUNNY   67  33  28 W9G22     29.91F
PRAIRIE DU CHI PTSUNNY   66  35  32 W13G20    29.91F
PLATTEVILLE    MOSUNNY   64  40  42 W18       29.93F
$$

WIZ056-057-062-063-064-067-068-031800-
SOUTH CENTRAL WISCONSIN

CITY           SKY/WX    TMP DP  RH WIND       PRES   REMARKS
REEDSBURG      PTSUNNY   65  36  34 W16G22    29.87F
BARABOO/DELLS  PTSUNNY   66  32  28 W12       29.87F
LONE ROCK      PTSUNNY   65  36  34 W16G23    29.90F
MINERAL POINT  MOSUNNY   64  34  32 W15       29.92F
MADISON        PTSUNNY   65  36  34 W9G21     29.88F
MIDDLETON      MOSUNNY   66  36  33 NW16G25   29.89F
WATERTOWN      PTSUNNY   65  36  33 W15G22    29.87F
MONROE         PTSUNNY   63  34  34 W16G23    29.92F
JANESVILLE     PTSUNNY   66  37  34 NW13G20   29.90F
$$

WIZ051-052-058>065-066-070>072-031800-
SOUTHEAST WISCONSIN

CITY           SKY/WX    TMP DP  RH WIND       PRES   REMARKS
MILWAUKEE      PTSUNNY   64  33  31 W10       29.87F
WAUKESHA       PTSUNNY   61  36  39 NW12      29.89F
MILWAUKEE/TIMM SUNNY     64  32  29 W13       29.88F
RACINE         PTSUNNY   65  34  31 W8        29.89F
BURLINGTON     PTSUNNY   64  35  34 W14       29.89F
KENOSHA        PTSUNNY   65  39  38 W10       29.89F
FOND DU LAC    MOSUNNY   67  33  28 W14       29.84F
SHEBOYGAN      MOSUNNY   65  35  33 W15G23    29.84F
WEST BEND      PTSUNNY   64  32  29 W15G22    29.85F
JUNEAU         MOSUNNY   65  35  33 SW20      29.88F
$$

LSZ147-162-031800-
LAKE SUPERIOR

STATION/POSITION TIME  TEMP    WIND        PRES    WAVE
                       AIR SEA DIR/SP/G            HT/PER
                 (UTC) (F)     (DEG/KT/KT) (MB)    (FT/S)
W MID LAKE BUOY  1650   42 37  260/ 14/ 17 1005.3F   3/ 5
DEVILS ISLAND    1700   48     260/ 17/ 18 1005.9F
SAXON HARBOR     1700   56     220/ 12/ 23 1005.8
$$

LMZ867-665-643>646-031800-
LAKE MICHIGAN

STATION/POSITION TIME  TEMP    WIND        PRES    WAVE
                       AIR SEA DIR/SP/G            HT/PER
                 (UTC) (F)     (DEG/KT/KT) (MB)    (FT/S)
CHAMBERS ISLAND  1600   55     160/  7/ 12 1008.5F
N MID LAKE BUOY  1650   41 39  190/ 12/ 14 1008.0F   2/ 3
NORTHPORT PIER   1620          230/  5/ 13 1007.8F
ALGOMA LAKESHORE 1615          270/ 14/ 19   N/A
KEWAUNEE LAKESHO 1700   66     270/ 11/ 16 1008.2F
SHEBOYGAN LAKESH 1700   65     270/ 14/ 17 1010.4F
PORT WASHINGTON  1600   66     260/  9/ 14 1012.2
S MID LAKE BUOY  1650   44 42  190/ 10/ 10 1012.7F   0
KENOSHA   LAKESH 1700   59     170/  6/ 10 1011.9F
$$

TC  - TEMPERATURE IN CELSIUS
VSB - VISIBILITY IN STATUTE MILES
WCI - WIND CHILL INDEX
HX  - HEAT INDEX





USA.gov is the U.S. government's official web portal to all federal, state and local government web resources and services.